Flag for U.S.A. Weather past 2 weeks in Pensacola, Florida, U.S.A.

Now
73 °F

Passing clouds.


Feels Like: 69 °F
Forecast: 74 / 84 °F
Wind: 5 mph from East

Location: Pensacola Regional Airport

Current Time: May 26, 2015 at 9:56:47 PM

Latest Report: May 26, 2015 at 8:53 PM


Visibility: 10 mi

Pressure: 30.13 "Hg

Humidity: 97%

Dew point: 72 °F

Location of PensacolaLocation

Historic Weather in Pensacola — Graph

°F

Pensacola temperature yesterday

Maximum temperature yesterday: 82 °F (at 2:53 PM)
Minimum temperature yesterday: 73 °F (at 8:53 PM)
Average temperature yesterday: 78 °F

Past Weeks' High & Low Weather Summary

 TemperatureHumidityPressure
High88 °F (May 13, 2:53 PM)100% (May 18, 3:53 AM)30.26 "Hg (May 18, 3:53 AM)
Low63 °F (May 22, 6:53 AM)41% (May 22, 1:53 PM)29.94 "Hg (May 20, 4:53 PM)
Average78 °F79%30.12 "Hg
* Reported May 11 8:04 PM — May 26 8:53 PM, Pensacola, Weather by CustomWeather, © 2015

Note: Actual official high and low records may vary slightly from our data, if they occured in-between our weather recording intervals... More about our weather records

Advertising

Pensacola weather history for previous 24 hours

 ConditionsComfort  
Time TempWeatherWind HumidityBarometerVisibility
8:53 PM
Tue, May 26
73 °FPassing clouds.5 mph97%30.13 "Hg10 mi
7:53 PM74 °FPassing clouds.7 mph97%30.13 "Hg10 mi
6:53 PM75 °FPassing clouds.9 mph94%30.12 "Hg10 mi
5:53 PM76 °FScattered clouds.6 mph94%30.12 "Hg10 mi
4:53 PM77 °FOvercast.12 mph85%30.11 "Hg10 mi
3:53 PM76 °FSunny.7 mph88%30.11 "Hg10 mi
2:53 PM75 °FSunny.10 mph90%30.09 "Hg10 mi
1:53 PM72 °FThundershowers. Scattered clouds.6 mph100%30.12 "Hg7 mi
12:53 PM72 °FLight rain. Broken clouds.5 mph97%30.15 "Hg10 mi
12:03 PM71 °FThunderstorms. Partly sunny.5 mph96%30.16 "Hg10 mi
11:55 AM71 °FThundershowers. Partly sunny.3 mph96%30.17 "Hg10 mi
11:02 AM70 °FThunderstorms. Fog.17 mph97%30.18 "Hg1 mi
11:00 AM70 °FThunderstorms. Mostly cloudy.12 mph97%30.18 "Hg8 mi
10:00 AM74 °FThunderstorms. Mostly cloudy.8 mph91%30.13 "Hg10 mi
8:53 AM79 °FLight rain. Partly sunny.18 mph90%30.12 "Hg10 mi
7:53 AM79 °FPartly sunny.16 mph88%30.12 "Hg10 mi
6:53 AM78 °FPartly sunny.13 mph90%30.11 "Hg10 mi
5:53 AM77 °FPartly sunny.12 mph94%30.10 "Hg10 mi
4:53 AM77 °FPartly cloudy.10 mph90%30.08 "Hg10 mi
3:53 AM76 °FPassing clouds.12 mph94%30.07 "Hg10 mi
2:53 AM76 °FPassing clouds.12 mph94%30.08 "Hg10 mi
1:53 AM76 °FPassing clouds.13 mph94%30.09 "Hg10 mi
12:53 AM77 °FPassing clouds.12 mph90%30.11 "Hg10 mi
11:53 PM
Mon, May 25
77 °FPassing clouds.12 mph90%30.12 "Hg10 mi
10:53 PM75 °FPassing clouds.7 mph94%30.12 "Hg10 mi
9:53 PM74 °FLight rain. Partly cloudy.7 mph91%30.11 "Hg10 mi
Weather by CustomWeather, © 2015

See weather overviewHow to use our weather pages